Погода в Комсомольском

Россия / Саратовская область     51°37′01″N   48°01′00″E
темп.,
°C
ветер,
м/с
пор.,
м/с
влажн.,
%
обл.,
%
осадки,
мм/ч
давл.,
гПа
погр.,
м
19 апреля, пн
пн1901:00+11ссв3775100 0.3 1016202
04:00+10св497692 0.3 1016243
07:00+9св61172100 0.2 1016423
10:00+8всв61285100 0.4 1017530
13:00+9всв71083100 0.4 1017646
16:00+10всв71182100 0.6 1017814
19:00+9всв81381100 0.2 1017728
22:00+8в81379100 0.3 1019725
20 апреля, вт
вт2001:00+6в81383100 2.7 1020664
04:00+5в81381100 4.3 1021627
07:00+4вюв91580100 0.1 1022647
10:00+3вюв81575100 0.3 1023664
13:00+7вюв81363100 0.0 1023852
16:00+8вюв81463100 0.0 1022953
19:00+9вюв91563100 0.0 1020913
22:00+8вюв91763100 0.0 1021852
21 апреля, ср
ср2101:00+7юв101957100 0.2 1020738
04:00+4юв101979100 3.1 1020663
07:00+3юв101988100 5.4 1020645
10:00+3юв112089100 12.7 1020671
13:00+3юв101892100 8.6 1020660
16:00+3ююв91692100 10.9 1021626
19:00+4ююв81493100 0.4 1022573
22:00+5ююв61294100 0.6 1023457
22 апреля, чт
чт2201:00+5ююв51096100 0.1 1022404
04:00+5юв5997100 0.1 1023344
07:00+6ююв5897100 0.0 1023311
10:00+8ююв689291 0.0 1024363
13:00+10ю667998 0.0 1024613
16:00+14ю4463100 0.0 10241201
19:00+11юв797778 0.0 1026459
22:00+8юв5888100 0.0 1026242
23 апреля, пт
пт2301:00+6ююв489229 0.0 1027203
04:00+5юв34945 0.0 102781
07:00+6вюв35885 0.0 1027148
10:00+11в34655 0.0 1026576
13:00+14в445561 0.0 10251114
16:00+15в5555100 0.0 10241554
19:00+12в4768100 0.0 1023354
22:00+11в2474100 0.0 1022147